Theta_e
351 351 352 354 354 355 354 351 352 352 351 352 352 349 352 355 358 358 357 353 354 357 355 354 354 353 353 352 353 352 352 352 354 351 351 349 342 341 340 342 340 346 351
350 350 352 353 353 353 353 353 354 353 353 352 353 353 358 358 357 357 357 356 353 354 355 355 355 353 350 349 350 350 351 351 349 351 349 348 347 347 343 338 338 355 354
348 350 351 351 351 351 352 353 352 352 351 353 353 354 358 358 358 356 356 355 343 350 338 350 350 351 343 337 340 346 350 352 350 350 352 350 347 348 349 348 349 352 353
350 351 352 352 351 351 352 352 351 351 353 352 355 356 357 357 357 356 356 355 353 351 350 350 350 352 352 354 353 352 351 352 352 351 350 349 346 343 340 346 348 346 347
350 350 355 352 351 351 352 351 352 352 352 354 357 359 358 356 349 350 352 354 353 353 354 354 352 352 353 351 352 353 350 351 350 349 348 349 347 343 345 347 344 343 340
351 355 356 354 355 356 357 356 358 359 360 357 359 357 352 343 344 346 352 356 355 355 354 353 353 352 349 348 349 347 343 341 343 348 349 351 350 347 345 342 344 343 340
357 358 361 359 361 361 362 363 362 360 357 355 350 347 343 335 335 340 352 354 353 353 352 353 352 350 349 350 350 349 348 348 347 344 342 346 347 347 348 348 345 346 342
360 362 363 364 363 361 358 357 355 353 350 348 346 341 335 327 329 332 343 349 348 346 346 347 348 346 345 345 349 349 349 347 347 346 346 346 346 344 344 347 346 347 348
365 365 363 359 356 356 354 352 350 349 345 342 341 340 334 324 325 334 340 345 344 342 335 336 341 339 338 339 344 345 346 344 343 342 343 343 342 342 343 343 344 344 346
363 359 357 356 354 354 351 347 342 340 339 339 337 336 333 323 323 328 335 339 345 343 337 331 327 328 330 334 340 340 338 333 334 335 337 340 342 341 339 338 337 340 340
358 357 355 351 347 345 343 340 341 341 339 338 335 330 328 327 326 330 334 335 336 339 333 330 328 328 329 329 330 331 331 333 335 337 337 335 334 333 332 332 333 333 335
351 347 346 343 343 343 343 342 340 339 338 337 336 334 327 324 327 331 332 333 334 334 333 331 330 330 328 325 327 327 328 328 329 330 330 330 328 330 326 326 328 324 324
346 345 344 342 341 341 341 340 338 337 337 336 337 336 335 331 327 326 326 329 330 329 327 327 329 327 328 323 318 317 317 317 316 316 317 316 316 316 316 317 316 316 317
344 344 342 340 340 338 337 336 335 335 335 333 332 330 325 322 323 325 328 330 331 332 331 328 326 325 321 318 317 316 316 316 316 315 316 315 315 315 315 315 314 317 317
344 342 340 338 338 333 332 329 325 322 328 327 322 322 320 314 309 311 316 321 320 319 319 323 322 319 318 318 318 318 317 317 316 316 315 315 315 314 315 313 314 314 315
342 340 338 337 336 330 325 320 317 317 320 320 320 317 310 308 308 308 308 313 316 317 320 320 319 319 319 319 319 318 318 317 316 315 315 314 314 314 313 313 313 313 314
339 338 336 337 337 334 326 318 315 312 312 312 311 311 310 310 311 312 314 316 317 318 320 319 319 320 320 320 319 319 319 318 317 316 315 315 313 313 312 312 312 312 312
339 338 336 336 335 333 326 320 316 315 315 313 311 311 311 311 314 316 317 318 320 320 320 320 320 320 320 319 319 319 319 318 319 317 316 314 313 312 312 311 311 311 311
341 337 336 336 333 332 328 323 319 318 317 316 313 312 312 312 314 315 319 321 321 320 320 320 320 320 319 319 319 319 319 318 318 317 317 314 313 312 312 311 310 310 310
339 336 336 335 333 332 329 326 324 323 321 320 317 317 314 314 317 319 320 323 318 319 319 319 318 318 318 319 318 319 319 317 317 317 317 314 313 311 311 310 309 310 310
337 334 334 334 332 332 330 328 327 326 324 323 322 324 322 321 322 322 319 318 318 316 316 315 315 315 315 315 315 315 316 317 316 315 313 312 310 310 309 308 309 308 308
334 333 331 332 331 332 330 328 326 325 322 322 320 318 315 314 318 317 317 316 315 315 315 314 314 313 312 313 313 313 314 315 315 312 310 309 308 308 307 308 307 307 307
331 330 330 331 331 330 327 327 325 323 322 320 319 315 313 316 318 316 315 315 315 315 314 313 313 312 313 313 313 313 313 312 311 309 308 307 306 307 306 306 306 306 307
329 328 330 330 330 329 328 327 323 322 320 319 318 318 317 316 316 316 316 316 316 315 314 313 312 312 313 313 313 311 311 310 304 303 303 304 305 304 304 305 306 307 309
330 330 329 329 328 328 326 323 321 320 319 318 317 316 316 316 316 317 316 316 316 316 315 313 311 311 311 312 311 313 312 309 303 302 300 300 301 302 304 306 307 307 308
328 328 327 327 326 324 321 321 321 320 319 319 318 317 317 317 317 317 317 317 317 317 316 314 311 310 310 311 310 310 307 304 301 300 301 302 303 304 306 307 307 307 307
Wind_Speed
24 24 24 22 22 21 17 16 16 16 16 14 12 13 13 14 16 18 18 18 16 16 17 17 16 16 17 15 16 19 16 18 12 14 11 9 13 16 16 24 42 34 22
22 22 21 23 20 19 20 17 16 16 15 13 13 12 13 15 17 16 17 13 15 16 16 18 17 15 5 14 11 23 20 18 7 10 9 6 17 18 23 25 49 29 22
21 22 21 21 20 18 16 19 15 15 13 11 13 13 15 15 15 13 15 13 13 12 16 20 19 12 12 5 15 20 18 13 8 9 9 12 9 8 13 15 15 18 19
22 22 23 20 19 18 17 16 12 11 11 10 12 13 13 13 11 11 12 13 14 15 20 20 19 11 10 13 17 16 14 12 12 11 8 8 13 17 18 12 14 14 20
17 19 15 17 11 14 7 13 9 7 8 12 9 5 4 4 8 11 9 8 7 6 9 10 9 6 6 9 10 6 3 8 11 8 7 11 10 14 11 4 7 10 14
21 9 14 13 8 7 4 3 4 6 5 2 3 5 4 5 8 8 11 10 8 6 3 2 3 7 7 4 5 6 8 8 8 6 6 7 8 10 9 4 2 2 1
16 11 13 14 9 6 7 7 8 8 9 12 9 5 5 6 7 6 7 11 11 12 11 10 6 4 5 5 6 5 5 5 7 9 9 9 11 9 8 7 5 6 7
17 14 14 13 13 10 8 9 11 10 11 10 8 6 4 7 7 5 4 6 7 9 9 9 8 6 6 6 6 5 5 6 5 3 5 8 7 8 6 8 10 9 9
17 18 18 13 12 14 12 11 9 9 10 10 8 7 7 8 7 5 5 4 7 8 13 9 7 5 7 6 7 8 8 9 7 7 6 6 7 8 9 11 12 13 7
20 16 16 17 16 13 12 11 11 11 10 11 10 9 8 8 8 4 8 9 5 9 14 15 14 13 12 10 9 9 10 10 6 6 4 8 6 8 13 13 13 11 9
21 22 20 17 16 14 13 12 10 11 12 11 9 10 8 9 10 8 7 9 7 16 17 14 16 16 16 16 15 14 13 12 11 11 8 15 15 14 15 13 14 14 14
23 21 20 19 15 14 14 12 11 12 11 10 11 12 10 11 11 11 12 14 15 17 13 9 12 14 18 19 17 18 17 17 18 17 18 18 19 16 16 16 13 16 15
22 22 19 19 18 15 13 13 11 11 11 11 10 11 12 9 12 12 10 9 11 11 10 8 8 9 10 12 15 18 15 18 20 21 20 19 17 16 15 14 15 14 15
23 22 21 21 18 15 14 14 10 7 8 7 6 12 13 11 7 4 5 5 7 5 3 3 6 6 8 11 12 13 15 15 15 14 14 14 14 16 16 17 17 18 15
23 23 20 20 17 13 11 15 15 14 7 15 15 14 14 8 8 7 7 6 6 4 5 5 5 8 8 8 9 9 11 13 13 14 14 14 14 15 16 18 19 19 20
23 21 20 19 19 16 19 20 16 12 10 13 10 11 14 12 9 8 8 8 6 5 7 8 7 7 8 7 8 7 8 9 8 11 13 13 13 14 17 17 17 16 17
24 22 21 19 19 18 17 14 16 15 13 11 12 12 12 12 10 10 9 8 4 2 2 7 6 6 5 6 6 7 6 8 2 6 9 10 12 13 15 15 16 16 15
23 23 22 19 19 18 18 16 14 13 12 13 12 11 10 9 7 5 3 1 3 1 4 3 3 2 1 4 6 8 9 10 8 5 6 5 8 12 13 15 16 16 17
22 24 22 19 21 21 21 20 18 17 16 13 10 9 7 6 6 5 1 3 8 6 5 4 5 5 5 6 7 8 9 12 12 9 9 2 7 10 13 15 16 17 18
22 23 21 21 22 23 22 21 20 20 21 19 18 16 12 9 8 8 6 3 4 6 8 8 11 12 11 10 11 12 10 12 14 8 6 6 8 11 14 16 17 17 16
23 24 20 21 21 21 21 20 20 17 16 16 10 21 15 12 10 11 3 5 3 7 7 6 9 10 11 12 13 13 14 13 13 9 11 12 14 15 15 16 17 18 20
22 23 18 19 19 18 19 17 18 16 14 17 14 10 7 7 7 5 5 2 5 4 4 6 7 9 10 11 13 14 14 14 10 9 10 13 15 16 17 17 18 18 19
21 21 19 18 17 16 16 14 15 14 13 13 21 12 9 9 7 6 4 3 2 1 4 5 7 7 8 8 10 9 5 7 9 11 10 11 14 16 17 17 19 20 19
21 23 19 20 17 16 15 13 14 13 13 11 10 15 12 7 7 9 4 4 1 3 4 6 7 7 5 6 7 5 7 11 14 12 13 11 14 17 18 19 21 20 19
23 22 21 18 18 17 14 13 12 9 9 13 11 10 10 10 8 7 6 4 2 2 5 6 6 6 7 7 7 8 8 12 14 12 13 13 14 15 19 20 19 21 20
25 23 20 18 17 14 16 13 13 12 11 11 11 10 6 7 7 7 5 5 5 4 6 5 8 7 6 7 7 7 10 13 11 11 13 15 14 16 19 22 23 22 22
Wind_Direction
206 217 210 216 220 224 235 242 247 254 262 263 261 258 255 252 250 248 260 258 262 265 262 256 256 248 247 257 258 250 251 247 231 268 292 315 238 243 320 251 271 265 239
204 210 220 211 219 221 220 232 234 237 243 251 254 257 259 265 266 261 260 271 294 279 277 277 257 261 322 273 282 277 279 266 280 289 295 255 223 249 224 206 234 238 230
204 205 218 214 211 228 239 215 232 237 232 246 256 255 261 274 278 282 274 265 279 280 292 276 300 254 242 255 249 260 270 271 273 273 280 296 272 295 271 253 270 278 272
204 206 202 213 214 209 224 231 221 233 219 240 252 267 283 291 288 272 278 282 270 252 257 266 262 260 252 251 253 263 264 278 291 280 278 301 310 305 304 278 284 289 281
209 191 189 189 204 197 239 195 189 210 235 243 262 275 331 300 356 349 339 312 322 293 271 268 275 273 276 272 272 237 270 265 278 321 322 322 327 336 335 316 314 309 297
176 164 154 152 160 151 162 175 181 227 223 191 103 120 110 20 4 3 6 8 4 20 2 41 4 51 34 15 277 283 300 307 301 328 334 331 330 328 322 330 227 221 299
151 149 145 146 148 155 170 162 146 112 112 100 90 63 27 17 6 13 43 39 51 52 49 50 86 79 56 34 4 342 338 327 305 279 286 301 317 325 327 321 285 251 232
142 147 137 144 143 149 155 142 119 113 104 100 89 75 37 19 13 20 49 65 56 48 52 58 73 53 40 22 28 354 15 23 24 349 295 300 314 331 356 340 329 325 320
141 136 142 147 154 147 135 131 124 116 109 104 95 80 42 27 16 20 32 97 86 71 68 58 60 32 33 36 41 33 62 55 29 14 4 358 359 11 17 16 14 4 350
140 154 147 146 147 141 131 123 125 131 128 112 101 78 47 41 29 19 39 75 106 110 76 45 55 52 44 48 47 38 38 2 10 349 2 352 11 46 47 41 34 23 10
146 139 135 131 128 127 128 130 133 131 117 117 103 89 84 61 50 54 68 58 50 111 82 63 62 60 55 54 52 50 23 10 360 327 22 71 60 46 27 20 20 22 11
132 131 130 132 130 128 129 130 128 127 132 142 148 123 84 69 62 65 67 68 74 77 84 67 66 65 58 48 50 33 30 30 23 35 38 33 26 25 16 13 13 5 359
136 133 134 127 126 134 136 141 151 155 158 173 190 141 135 98 77 67 68 66 68 75 76 76 56 42 50 47 53 46 42 38 35 34 29 26 18 12 11 5 2 358 352
139 136 130 128 135 145 153 166 164 184 182 132 131 124 102 82 76 78 73 65 89 75 102 53 79 77 73 70 55 48 49 40 40 31 25 19 11 9 6 8 355 343 341
143 142 144 146 149 132 124 104 106 79 87 99 92 103 113 98 77 71 70 92 89 72 18 85 74 59 66 54 58 69 56 43 26 20 16 11 6 2 359 354 344 351 352
150 153 153 159 149 133 114 103 91 96 98 102 104 121 112 115 107 100 99 107 97 57 63 78 78 62 51 37 33 36 55 55 29 18 7 359 1 357 355 348 348 350 339
157 160 160 164 170 154 133 124 111 96 101 104 108 112 114 117 113 107 113 116 109 24 166 92 72 44 29 15 8 10 17 10 33 27 349 350 2 353 345 342 346 340 348
163 164 168 171 155 156 147 145 139 133 117 115 124 126 121 117 121 119 98 237 250 242 78 70 28 4 14 27 355 2 341 338 310 350 321 342 358 346 340 343 335 337 329
171 165 175 172 164 160 156 157 161 158 150 149 161 158 154 146 139 147 143 1 352 7 20 24 4 336 351 349 343 327 310 306 301 289 277 9 354 339 338 332 332 327 330
174 174 183 169 168 159 163 173 172 171 164 169 185 186 180 190 213 215 215 247 6 1 30 7 6 4 359 341 312 297 302 313 311 318 342 8 359 350 334 330 327 324 326
170 180 187 171 169 174 175 185 170 171 175 183 120 162 177 205 247 190 158 87 36 24 19 5 349 334 328 338 340 330 325 329 334 14 22 15 359 342 331 328 327 330 320
174 175 182 174 177 180 184 185 163 175 182 142 136 151 190 208 245 127 129 130 77 33 358 358 334 336 332 333 337 339 334 325 346 15 13 357 342 335 329 327 324 320 318
168 175 184 167 182 180 187 182 174 183 175 175 148 145 160 187 218 134 139 144 84 12 354 337 327 327 334 339 331 323 352 26 22 12 346 336 329 321 324 321 317 307 303
172 179 173 172 170 178 191 177 189 183 167 167 155 164 171 158 170 150 206 137 105 15 337 326 323 316 332 330 340 328 352 349 343 329 330 338 323 319 317 307 302 307 319
175 175 167 168 165 182 174 181 176 174 172 161 173 175 178 184 182 172 182 151 177 279 325 321 321 312 310 300 298 271 299 320 329 326 327 329 323 316 309 311 318 317 314
176 165 156 149 161 181 168 186 173 181 195 178 181 174 192 184 194 194 198 219 234 247 303 307 314 305 301 288 259 271 310 326 326 329 332 332 324 311 312 308 304 312 318